Time,TemperatureF,DewpointF,PressureIn,WindDirection,WindDirectionDegrees,WindSpeedMPH,WindSpeedGustMPH,Humidity,HourlyPrecipIn,Conditions,Clouds,dailyrainin,SoftwareType,DateUTC
2013-04-23 00:12:00,44.6,30.7,29.93,WSW,247,0.0,-999.0,58,-99.99,,,0.00,Acu-Link.com,2013-04-23 04:12:00,
2013-04-23 00:27:00,44.2,30.4,29.93,NW,315,0.0,-999.0,58,-99.99,,,0.00,Acu-Link.com,2013-04-23 04:27:00,
2013-04-23 00:42:00,43.9,30.5,29.94,NNW,337,0.0,-999.0,59,-99.99,,,0.00,Acu-Link.com,2013-04-23 04:42:00,
2013-04-23 00:58:00,43.3,30.8,29.93,East,90,0.0,-999.0,61,-99.99,,,0.00,Acu-Link.com,2013-04-23 04:58:00,
2013-04-23 01:13:00,43.2,29.9,29.93,East,90,0.0,-999.0,59,-99.99,,,0.00,Acu-Link.com,2013-04-23 05:13:00,
2013-04-23 01:28:00,43.3,31.6,29.93,NE,45,0.0,-999.0,63,-99.99,,,0.00,Acu-Link.com,2013-04-23 05:28:00,
2013-04-23 01:43:00,42.8,29.9,29.93,West,270,0.0,-999.0,60,-99.99,,,0.00,Acu-Link.com,2013-04-23 05:43:00,
2013-04-23 01:59:00,42.4,29.5,29.92,NE,45,0.0,-999.0,60,-99.99,,,0.00,Acu-Link.com,2013-04-23 05:59:00,
2013-04-23 02:14:00,42.1,30.0,29.91,NE,45,0.0,-999.0,62,-99.99,,,0.00,Acu-Link.com,2013-04-23 06:14:00,
2013-04-23 02:29:00,41.9,30.2,29.91,NNE,22,0.0,-999.0,63,-99.99,,,0.00,Acu-Link.com,2013-04-23 06:29:00,
2013-04-23 02:44:00,41.7,28.9,29.91,NNE,22,0.0,-999.0,60,-99.99,,,0.00,Acu-Link.com,2013-04-23 06:44:00,
2013-04-23 03:00:00,41.7,30.0,29.91,NE,45,0.0,-999.0,63,-99.99,,,0.00,Acu-Link.com,2013-04-23 07:00:00,
2013-04-23 03:15:00,41.7,29.7,29.91,West,270,1.1,-999.0,62,-99.99,,,0.00,Acu-Link.com,2013-04-23 07:15:00,
2013-04-23 03:30:00,41.7,30.4,29.90,ENE,67,1.7,-999.0,64,-99.99,,,0.00,Acu-Link.com,2013-04-23 07:30:00,
2013-04-23 03:46:00,41.4,30.5,29.90,ENE,67,0.0,-999.0,65,-99.99,,,0.00,Acu-Link.com,2013-04-23 07:46:00,
2013-04-23 04:01:00,40.8,30.7,29.90,WNW,292,0.0,-999.0,67,-99.99,,,0.00,Acu-Link.com,2013-04-23 08:01:00,
2013-04-23 04:16:00,40.8,30.0,29.90,NNW,337,0.0,-999.0,65,-99.99,,,0.00,Acu-Link.com,2013-04-23 08:16:00,
2013-04-23 04:32:00,40.6,30.5,29.90,East,90,1.7,-999.0,67,-99.99,,,0.00,Acu-Link.com,2013-04-23 08:32:00,
2013-04-23 04:47:00,40.6,30.1,29.90,NNE,22,1.1,-999.0,66,-99.99,,,0.00,Acu-Link.com,2013-04-23 08:47:00,
2013-04-23 05:02:00,40.5,30.4,29.89,East,90,2.7,-999.0,67,-99.99,,,0.00,Acu-Link.com,2013-04-23 09:02:00,
2013-04-23 05:17:00,40.1,31.1,29.89,NE,45,0.0,-999.0,70,-99.99,,,0.00,Acu-Link.com,2013-04-23 09:17:00,
2013-04-23 05:32:00,39.4,30.4,29.89,ENE,67,1.7,-999.0,70,-99.99,,,0.00,Acu-Link.com,2013-04-23 09:32:00,
2013-04-23 05:48:00,39.4,30.4,29.89,NNE,22,1.1,-999.0,70,-99.99,,,0.00,Acu-Link.com,2013-04-23 09:48:00,
2013-04-23 06:03:00,39.2,30.3,29.88,East,90,0.0,-999.0,70,-99.99,,,0.00,Acu-Link.com,2013-04-23 10:03:00,
2013-04-23 06:18:00,38.8,29.9,29.89,NE,45,0.0,-999.0,70,-99.99,,,0.00,Acu-Link.com,2013-04-23 10:18:00,
2013-04-23 06:34:00,39.4,30.1,29.90,East,90,0.0,-999.0,69,-99.99,,,0.00,Acu-Link.com,2013-04-23 10:34:00,
2013-04-23 06:49:00,39.6,30.3,29.89,NE,45,0.0,-999.0,69,-99.99,,,0.00,Acu-Link.com,2013-04-23 10:49:00,
2013-04-23 07:04:00,39.4,30.4,29.90,SE,135,1.1,-999.0,70,-99.99,,,0.00,Acu-Link.com,2013-04-23 11:04:00,
2013-04-23 07:20:00,40.1,31.1,29.90,NE,45,1.1,-999.0,70,-99.99,,,0.00,Acu-Link.com,2013-04-23 11:20:00,
2013-04-23 07:35:00,41.4,31.6,29.90,ENE,67,2.2,-999.0,68,-99.99,,,0.00,Acu-Link.com,2013-04-23 11:35:00,
2013-04-23 07:50:00,41.7,31.9,29.90,East,90,1.7,-999.0,68,-99.99,,,0.00,Acu-Link.com,2013-04-23 11:50:00,
2013-04-23 08:05:00,43.0,32.8,29.90,NE,45,1.7,-999.0,67,-99.99,,,0.00,Acu-Link.com,2013-04-23 12:05:00,
2013-04-23 08:21:00,44.2,33.2,29.91,East,90,3.7,-999.0,65,-99.99,,,0.00,Acu-Link.com,2013-04-23 12:21:00,
2013-04-23 08:36:00,45.0,34.3,29.93,NNE,22,1.7,-999.0,66,-99.99,,,0.00,Acu-Link.com,2013-04-23 12:36:00,
2013-04-23 08:51:00,46.0,34.1,29.93,ENE,67,2.7,-999.0,63,-99.99,,,0.00,Acu-Link.com,2013-04-23 12:51:00,
2013-04-23 09:06:00,47.5,34.7,29.93,ENE,67,2.7,-999.0,61,-99.99,,,0.00,Acu-Link.com,2013-04-23 13:06:00,
2013-04-23 09:21:00,48.9,36.5,29.92,East,90,3.7,-999.0,62,-99.99,,,0.00,Acu-Link.com,2013-04-23 13:21:00,
2013-04-23 09:36:00,49.5,36.6,29.91,ENE,67,3.7,-999.0,61,-99.99,,,0.00,Acu-Link.com,2013-04-23 13:36:00,
2013-04-23 09:51:00,50.9,37.9,29.91,East,90,4.2,-999.0,61,-99.99,,,0.00,Acu-Link.com,2013-04-23 13:51:00,
2013-04-23 10:06:00,52.0,38.1,29.90,NE,45,2.7,-999.0,59,-99.99,,,0.00,Acu-Link.com,2013-04-23 14:06:00,
2013-04-23 10:22:00,53.2,38.8,29.92,East,90,0.0,-999.0,58,-99.99,,,0.00,Acu-Link.com,2013-04-23 14:22:00,
2013-04-23 10:37:00,55.2,39.8,29.92,NE,45,1.1,-999.0,56,-99.99,,,0.00,Acu-Link.com,2013-04-23 14:37:00,
2013-04-23 10:52:00,55.8,39.4,29.92,ENE,67,2.7,-999.0,54,-99.99,,,0.00,Acu-Link.com,2013-04-23 14:52:00,
2013-04-23 11:07:00,56.7,39.8,29.92,WNW,292,0.0,-999.0,53,-99.99,,,0.00,Acu-Link.com,2013-04-23 15:07:00,
2013-04-23 11:22:00,57.6,40.6,29.92,ENE,67,3.7,-999.0,53,-99.99,,,0.00,Acu-Link.com,2013-04-23 15:22:00,
2013-04-23 11:38:00,58.6,41.0,29.92,NNW,337,2.7,-999.0,52,-99.99,,,0.00,Acu-Link.com,2013-04-23 15:38:00,
2013-04-23 11:53:00,60.1,41.4,29.91,SW,225,1.7,-999.0,50,-99.99,,,0.00,Acu-Link.com,2013-04-23 15:53:00,
2013-04-23 12:08:00,61.5,43.2,29.91,ENE,67,1.7,-999.0,51,-99.99,,,0.00,Acu-Link.com,2013-04-23 16:08:00,
2013-04-23 12:23:00,63.3,42.7,29.90,SW,225,0.0,-999.0,47,-99.99,,,0.00,Acu-Link.com,2013-04-23 16:23:00,
2013-04-23 12:38:00,63.9,43.3,29.89,ESE,112,1.7,-999.0,47,-99.99,,,0.00,Acu-Link.com,2013-04-23 16:38:00,
2013-04-23 12:54:00,65.1,43.8,29.88,East,90,2.7,-999.0,46,-99.99,,,0.00,Acu-Link.com,2013-04-23 16:54:00,
2013-04-23 13:09:00,67.3,42.8,29.88,SW,225,3.7,-999.0,41,-99.99,,,0.00,Acu-Link.com,2013-04-23 17:09:00,
2013-04-23 13:24:00,66.7,43.5,29.86,East,90,5.3,-999.0,43,-99.99,,,0.00,Acu-Link.com,2013-04-23 17:24:00,
2013-04-23 13:39:00,66.7,43.5,29.86,ESE,112,2.2,-999.0,43,-99.99,,,0.00,Acu-Link.com,2013-04-23 17:39:00,
2013-04-23 13:54:00,68.0,45.3,29.85,East,90,3.7,-999.0,44,-99.99,,,0.00,Acu-Link.com,2013-04-23 17:54:00,
2013-04-23 14:10:00,66.7,44.7,29.85,North,0,0.0,-999.0,45,-99.99,,,0.00,Acu-Link.com,2013-04-23 18:10:00,
2013-04-23 14:25:00,69.1,45.0,29.85,West,270,0.0,-999.0,42,-99.99,,,0.00,Acu-Link.com,2013-04-23 18:25:00,
2013-04-23 14:40:00,69.1,44.4,29.84,SSW,202,4.7,-999.0,41,-99.99,,,0.00,Acu-Link.com,2013-04-23 18:40:00,
2013-04-23 14:55:00,68.5,45.1,29.84,East,90,1.1,-999.0,43,-99.99,,,0.00,Acu-Link.com,2013-04-23 18:55:00,
2013-04-23 15:10:00,68.2,44.8,29.83,NNE,22,1.7,-999.0,43,-99.99,,,0.00,Acu-Link.com,2013-04-23 19:10:00,
2013-04-23 15:25:00,68.7,44.7,29.83,NE,45,1.7,-999.0,42,-99.99,,,0.00,Acu-Link.com,2013-04-23 19:25:00,
2013-04-23 15:41:00,68.0,44.0,29.82,SW,225,1.7,-999.0,42,-99.99,,,0.00,Acu-Link.com,2013-04-23 19:41:00,
2013-04-23 15:56:00,68.5,46.3,29.81,NE,45,2.2,-999.0,45,-99.99,,,0.00,Acu-Link.com,2013-04-23 19:56:00,
2013-04-23 16:11:00,68.5,44.5,29.81,NE,45,1.1,-999.0,42,-99.99,,,0.00,Acu-Link.com,2013-04-23 20:11:00,
2013-04-23 16:26:00,68.4,45.6,29.80,ESE,112,2.7,-999.0,44,-99.99,,,0.00,Acu-Link.com,2013-04-23 20:26:00,
2013-04-23 16:42:00,68.2,46.0,29.80,WSW,247,2.7,-999.0,45,-99.99,,,0.00,Acu-Link.com,2013-04-23 20:42:00,
2013-04-23 16:57:00,68.9,44.9,29.79,SW,225,3.7,-999.0,42,-99.99,,,0.00,Acu-Link.com,2013-04-23 20:57:00,
2013-04-23 17:12:00,68.4,45.0,29.79,SW,225,5.3,-999.0,43,-99.99,,,0.00,Acu-Link.com,2013-04-23 21:12:00,
2013-04-23 17:27:00,67.5,44.8,29.79,SW,225,2.2,-999.0,44,-99.99,,,0.00,Acu-Link.com,2013-04-23 21:27:00,
2013-04-23 17:42:00,67.5,44.2,29.79,SSW,202,4.7,-999.0,43,-99.99,,,0.00,Acu-Link.com,2013-04-23 21:42:00,
2013-04-23 17:57:00,68.0,44.0,29.79,SW,225,3.7,-999.0,42,-99.99,,,0.00,Acu-Link.com,2013-04-23 21:57:00,
2013-04-23 18:13:00,66.7,44.1,29.79,SSW,202,3.2,-999.0,44,-99.99,,,0.00,Acu-Link.com,2013-04-23 22:13:00,
2013-04-23 18:28:00,66.0,43.5,29.80,SSW,202,4.2,-999.0,44,-99.99,,,0.00,Acu-Link.com,2013-04-23 22:28:00,
2013-04-23 18:43:00,66.2,43.6,29.80,SSW,202,2.7,-999.0,44,-99.99,,,0.00,Acu-Link.com,2013-04-23 22:43:00,
2013-04-23 18:59:00,65.1,43.8,29.80,South,180,4.2,-999.0,46,-99.99,,,0.00,Acu-Link.com,2013-04-23 22:59:00,
2013-04-23 19:14:00,64.8,44.1,29.80,East,90,2.7,-999.0,47,-99.99,,,0.00,Acu-Link.com,2013-04-23 23:14:00,
2013-04-23 19:29:00,64.4,44.3,29.80,SSW,202,3.2,-999.0,48,-99.99,,,0.00,Acu-Link.com,2013-04-23 23:29:00,
2013-04-23 19:44:00,63.5,44.0,29.79,WSW,247,3.7,-999.0,49,-99.99,,,0.00,Acu-Link.com,2013-04-23 23:44:00,
2013-04-23 19:59:00,63.0,44.1,29.79,SW,225,2.2,-999.0,50,-99.99,,,0.00,Acu-Link.com,2013-04-23 23:59:00,
2013-04-23 20:15:00,62.2,43.8,29.80,South,180,1.7,-999.0,51,-99.99,,,0.00,Acu-Link.com,2013-04-24 00:15:00,
2013-04-23 20:30:00,61.7,43.9,29.80,West,270,0.0,-999.0,52,-99.99,,,0.00,Acu-Link.com,2013-04-24 00:30:00,
2013-04-23 20:45:00,61.2,43.9,29.81,SSW,202,0.0,-999.0,53,-99.99,,,0.00,Acu-Link.com,2013-04-24 00:45:00,
2013-04-23 21:00:00,60.1,43.9,29.81,NE,45,0.0,-999.0,55,-99.99,,,0.00,Acu-Link.com,2013-04-24 01:00:00,
2013-04-23 21:16:00,59.5,44.3,29.81,SSW,202,0.0,-999.0,57,-99.99,,,0.00,Acu-Link.com,2013-04-24 01:16:00,
2013-04-23 21:31:00,59.0,43.8,29.81,ENE,67,0.0,-999.0,57,-99.99,,,0.00,Acu-Link.com,2013-04-24 01:31:00,
2013-04-23 21:46:00,58.6,43.9,29.82,SSW,202,1.7,-999.0,58,-99.99,,,0.00,Acu-Link.com,2013-04-24 01:46:00,
2013-04-23 22:01:00,58.6,43.9,29.82,SSW,202,0.0,-999.0,58,-99.99,,,0.00,Acu-Link.com,2013-04-24 02:01:00,
2013-04-23 22:17:00,58.5,43.8,29.82,SSW,202,1.7,-999.0,58,-99.99,,,0.00,Acu-Link.com,2013-04-24 02:17:00,
2013-04-23 22:32:00,57.6,43.8,29.82,SW,225,0.0,-999.0,60,-99.99,,,0.00,Acu-Link.com,2013-04-24 02:32:00,
2013-04-23 22:47:00,57.4,44.1,29.82,SSW,202,2.2,-999.0,61,-99.99,,,0.00,Acu-Link.com,2013-04-24 02:47:00,
2013-04-23 23:03:00,57.4,44.5,29.82,SSW,202,3.2,-999.0,62,-99.99,,,0.00,Acu-Link.com,2013-04-24 03:03:00,
2013-04-23 23:18:00,57.6,44.7,29.82,SSW,202,3.2,-999.0,62,-99.99,,,0.00,Acu-Link.com,2013-04-24 03:18:00,
2013-04-23 23:48:00,57.4,44.9,29.82,SSW,202,2.7,-999.0,63,-99.99,,,0.00,Acu-Link.com,2013-04-24 03:48:00,